Tracking 35274 objects as of 12-Sep-2026
HD Live streaming from Space Station
objects crossing your sky now

SL-12 DEB

Track SL-12 DEB now!
10-day predictions


NORAD ID: 28590
Int'l Code: 1992-047Z
Launch date: July 30, 1992
Source: Commonwealth of Independent States (former USSR) (CIS)
Launch site: TYURATAM MISSILE AND SPACE COMPLEX (TTMTR)

Note: This is SATELLITE DEBRIS
Your satellite tracking list
Your tracking list is empty




NASA's NSSDC Master Catalog

Two Line Element Set (TLE):
1 28590U 92047Z   13208.98844579 -.00000018  00000-0  10000-3 0  9998
2 28590  64.5339 247.5473 4977512 355.5723   1.3900  4.38765476144881
Source of the keplerian elements: AFSPC